This is the latest recevied weather packets stored in our database for station/object LX0APE-4. If no packets are shown the sender has not sent any weather packets the latest 1 day(s).
| Time | Temp. | Humidity | Pressure | Rain* | Wind** | Luminosity | Snow |
|---|---|---|---|---|---|---|---|
| 1778067410 | 12.78° C | 79% | 5003.7 hPa | 0 mm | - | - | - |
| 1778067110 | 13.33° C | 79% | 5003.7 hPa | 0 mm | - | - | - |
| 1778066510 | 13.33° C | 79% | 5003.5 hPa | 0 mm | - | - | - |
| 1778065910 | 13.33° C | 79% | 5003.4 hPa | 0 mm | - | - | - |
| 1778065610 | 13.89° C | 78% | 5003.3 hPa | 0 mm | - | - | - |
| 1778065310 | 13.89° C | 79% | 5003.3 hPa | 0 mm | - | - | - |
| 1778065010 | 13.89° C | 79% | 5003.3 hPa | 0 mm | - | - | - |
| 1778064710 | 14.44° C | 78% | 5003.3 hPa | 0 mm | - | - | - |
| 1778064410 | 14.44° C | 77% | 5003.4 hPa | 0 mm | - | - | - |
| 1778064110 | 15° C | 78% | 5003.4 hPa | 0 mm | - | - | - |
| 1778063810 | 15° C | 80% | 5003.2 hPa | 0 mm | - | - | - |
| 1778063510 | 14.44° C | 79% | 5003 hPa | 0 mm | - | - | - |
| 1778063210 | 14.44° C | 79% | 5003 hPa | 0 mm | - | - | - |
| 1778062910 | 14.44° C | 79% | 5003.1 hPa | 0 mm | - | - | - |
| 1778062610 | 15° C | 79% | 5003 hPa | 0 mm | - | - | - |
| 1778062010 | 15° C | 81% | 5002.8 hPa | 0.51 mm | - | - | - |
| 1778061710 | 14.44° C | 83% | 5003 hPa | 0.51 mm | - | - | - |
| 1778061410 | 13.89° C | 84% | 5002.9 hPa | 0.51 mm | - | - | - |
| 1778061110 | 13.89° C | 86% | 5002.9 hPa | 0.51 mm | - | - | - |
| 1778060810 | 13.33° C | 88% | 5002.8 hPa | 0.51 mm | - | - | - |
| 1778060512 | 12.78° C | 88% | 5002.8 hPa | 0.51 mm | - | - | - |
| 1778060210 | 12.78° C | 89% | 5002.9 hPa | 0.51 mm | - | - | - |
| 1778059910 | 12.22° C | 89% | 5002.8 hPa | 0.51 mm | - | - | - |
| 1778059310 | 12.22° C | 87% | 5002.9 hPa | 0.51 mm | - | - | - |
| 1778059010 | 12.22° C | 86% | 5002.9 hPa | 0.51 mm | - | - | - |
* Rain latest hour (hover to see other rain measurements)
** Current wind speed in m/s (hover to see current wind gust speed)